Theta_e
315 315 316 319 318 319 320 320 323 322 320 319 317 315 311 308 308 307 306 306 306 305 305 305 304 303 300 302 304 305 303 302
314 315 316 316 320 321 321 321 324 322 321 320 317 316 312 309 308 307 306 306 307 306 306 306 304 302 303 303 303 303 301 302
317 316 317 315 317 321 322 322 323 321 320 319 316 315 312 309 309 308 306 306 308 309 307 304 303 303 303 302 302 301 300 300
315 316 317 317 319 320 321 322 321 321 320 319 316 315 313 311 309 308 307 307 309 308 307 306 305 306 305 305 304 300 300 300
315 314 315 316 316 320 319 320 321 319 319 319 316 315 312 311 310 309 307 308 310 309 308 307 306 307 303 303 306 300 299 299
314 313 314 315 316 318 320 321 319 319 318 318 317 315 314 313 311 310 308 309 309 308 306 305 305 307 305 302 303 300 299 301
314 314 314 315 316 318 318 321 320 318 317 317 317 316 315 313 312 310 310 310 310 308 307 304 304 304 303 302 301 300 301 305
314 315 314 315 317 318 317 319 318 315 316 317 317 318 317 314 313 312 312 312 311 310 308 305 304 303 302 301 301 304 305 299
314 313 312 313 316 317 316 320 318 315 317 317 317 318 317 316 314 314 311 311 310 309 307 306 304 304 303 300 302 303 300 295
305 307 308 311 313 314 313 314 316 318 319 319 317 318 318 318 314 313 312 310 310 308 305 303 302 304 302 299 300 298 297 294
302 303 304 308 311 312 312 313 316 318 319 318 319 319 319 317 314 312 310 311 310 306 305 302 303 305 302 299 296 296 297 293
300 300 302 302 305 309 311 314 316 316 319 319 319 318 316 315 315 314 312 311 309 305 303 301 301 301 299 295 292 291 295 292
302 300 299 301 302 306 311 313 316 317 319 318 317 316 315 315 314 313 313 312 309 306 304 302 302 299 297 294 290 289 289 290
301 300 297 299 302 305 310 312 315 319 317 317 316 316 314 309 304 299 293 295 294 293 296 302 300 296 293 292 291 291 291 291
299 300 299 301 302 307 311 311 314 317 317 316 316 310 308 306 305 304 299 295 293 292 293 294 293 292 292 292 291 291 290 291
300 301 301 302 304 309 312 312 313 315 316 308 316 311 308 307 305 302 299 297 295 292 292 292 291 291 291 291 291 291 291 290
299 298 300 303 306 310 311 312 312 312 314 317 315 310 308 306 305 301 298 295 293 292 291 292 291 291 290 291 291 291 290 290
296 297 299 302 306 311 311 311 311 310 312 308 307 310 306 305 302 299 296 294 293 293 291 291 291 292 291 291 292 291 289 288
298 299 300 301 304 308 310 311 309 310 313 314 306 310 309 306 302 299 296 295 294 293 292 292 289 291 290 290 289 288 288 287
297 297 299 302 305 307 310 311 310 310 314 314 313 312 311 307 303 301 300 298 295 293 289 288 285 290 289 288 288 288 287 287
Wind_Speed
4 1 6 6 7 7 7 7 9 7 6 6 5 6 6 7 7 7 7 7 7 6 6 6 6 6 6 6 6 5 4 5
4 6 7 7 7 11 10 9 8 7 8 7 8 9 9 9 8 9 7 7 7 6 6 6 6 6 7 6 6 4 4 5
4 6 7 4 5 7 9 11 10 10 11 11 11 8 7 9 9 9 8 7 6 6 6 5 5 5 4 6 5 4 5 6
6 7 9 7 5 5 7 9 11 12 12 12 9 10 8 7 7 10 10 8 7 7 6 6 5 5 9 10 6 5 5 5
5 7 7 8 7 6 6 9 9 12 13 12 11 11 10 8 8 8 9 8 6 6 5 5 7 6 8 9 9 4 4 5
4 5 7 8 7 7 6 8 10 12 12 12 10 10 10 8 7 8 5 6 6 4 5 5 6 5 7 8 8 5 2 1
3 5 5 7 7 6 6 4 7 9 10 11 12 11 11 10 10 8 6 6 5 5 4 6 5 4 7 8 5 3 2 1
5 7 6 7 8 7 4 3 4 7 8 9 9 10 11 10 11 11 5 5 5 4 4 5 6 5 4 5 5 3 2 1
5 5 6 7 8 6 6 4 5 5 4 6 7 10 11 12 11 8 7 6 5 5 3 3 3 5 4 6 9 4 3 3
7 7 7 7 6 6 6 6 5 5 6 7 8 10 9 8 9 6 8 8 6 4 3 5 2 4 6 6 6 5 6 4
6 7 9 7 7 5 7 6 6 6 5 8 9 10 9 7 10 9 5 8 6 5 5 4 4 2 2 4 5 7 6 4
4 7 9 10 7 7 6 7 6 5 7 8 6 6 8 10 9 9 8 7 5 4 4 4 3 3 3 3 3 3 4 4
6 8 8 10 8 7 7 6 6 4 6 5 5 5 9 9 6 5 8 6 7 6 6 5 4 3 4 6 6 4 3 2
7 8 8 10 8 7 7 6 6 5 4 4 5 7 6 6 7 6 14 7 1 4 6 6 2 7 11 9 7 7 5 4
8 9 9 9 8 7 7 6 6 3 4 5 4 4 6 7 6 7 6 7 8 2 5 10 9 10 9 8 7 4 2 5
9 9 9 9 8 9 8 6 5 5 6 8 5 7 8 7 9 9 6 6 6 4 6 6 9 9 8 7 6 5 2 1
9 9 9 8 9 11 8 6 6 6 4 4 5 6 6 8 8 9 7 4 6 5 4 5 5 7 7 6 3 2 3 2
6 10 12 11 11 12 8 6 6 4 4 8 7 7 8 8 7 6 5 4 5 5 4 3 3 3 2 2 1 2 2 1
11 12 13 10 11 10 7 7 7 5 3 6 9 8 9 9 8 6 6 5 6 4 4 4 6 5 5 3 2 2 2 2
7 8 9 10 11 8 6 6 7 4 5 7 9 11 11 11 9 7 7 7 6 5 3 3 6 5 5 3 2 1 1 1
Wind_Direction
5 251 237 221 220 214 208 186 200 169 158 176 174 172 165 185 165 152 150 150 173 166 166 190 204 202 193 200 191 187 210 232
355 327 283 252 209 200 199 197 191 169 166 178 196 195 190 185 165 158 156 157 166 166 188 204 202 202 202 200 198 193 227 246
18 330 314 316 256 229 200 195 182 170 185 188 197 183 194 177 171 159 157 160 173 177 175 204 204 213 219 214 211 214 236 265
20 345 331 333 306 229 189 186 184 177 188 199 183 177 189 193 186 164 159 173 174 173 177 206 223 237 220 210 198 223 239 240
5 336 319 318 316 289 210 199 185 188 190 190 181 179 182 185 182 187 176 180 161 166 185 209 231 230 233 224 212 203 201 229
348 322 314 309 304 306 260 206 193 195 196 196 180 178 186 178 185 198 180 144 158 170 205 218 225 233 221 228 210 196 212 263
313 313 301 309 327 317 316 218 206 198 196 194 187 180 175 170 194 186 185 153 136 183 192 196 216 245 228 228 191 180 198 232
313 316 313 334 337 340 3 266 219 214 205 200 186 179 185 184 184 195 169 155 157 167 205 203 205 238 255 248 173 145 150 214
311 323 320 320 333 341 353 305 244 255 220 191 184 193 196 193 189 184 142 125 132 127 258 246 226 237 246 165 161 156 176 178
341 336 316 308 322 344 341 316 281 228 210 206 200 203 204 194 171 149 125 128 139 166 226 252 250 264 230 197 171 144 143 156
312 319 315 306 314 327 321 293 319 287 237 227 217 208 200 170 154 137 141 148 158 184 206 205 239 187 137 152 143 135 156 147
305 306 305 304 302 299 273 299 306 283 272 260 241 185 153 157 145 151 161 169 164 181 193 209 218 180 169 144 115 107 106 83
222 258 271 280 290 290 279 292 298 290 268 253 199 162 155 156 148 172 166 173 174 176 211 175 177 175 203 160 163 161 133 202
238 248 258 268 286 290 276 279 273 295 268 225 190 178 172 146 142 105 52 64 332 257 253 164 122 145 144 153 147 142 186 181
246 247 256 268 282 283 270 271 272 279 263 231 197 151 147 143 138 127 114 34 61 76 168 129 136 147 130 130 133 175 160 135
238 251 264 273 274 267 258 249 259 262 277 242 207 181 160 154 145 131 127 163 144 131 55 81 98 115 130 146 171 88 42 26
246 253 261 259 262 259 255 214 229 243 242 233 193 164 159 141 136 126 162 163 131 118 85 66 113 149 167 186 157 144 177 181
220 253 251 242 243 246 246 203 217 246 231 189 176 154 135 125 119 147 139 130 119 131 147 163 182 108 137 91 91 142 147 140
231 233 240 240 239 242 223 190 199 220 185 181 174 146 142 139 142 164 142 142 137 157 179 198 164 150 134 126 131 164 158 148
266 254 232 238 244 234 186 198 206 202 190 179 181 166 152 156 155 150 154 148 152 152 158 77 144 111 110 130 175 146 103 87